This is the latest recevied weather packets stored in our database for station/object KC1DMA. If no packets are shown the sender has not sent any weather packets the latest 10 day(s).
| Time | Temp. | Humidity | Pressure | Rain* | Wind** | Luminosity | Snow |
|---|---|---|---|---|---|---|---|
| 1777573195 | 12.22° C | 85% | 1008 hPa | - | - | 316 W/m² | - |
| 1777572893 | 12.22° C | 87% | 1007.9 hPa | - | - | 336 W/m² | - |
| 1777572588 | 11.67° C | 89% | 1008 hPa | - | - | 363 W/m² | - |
| 1777572283 | 11.11° C | 90% | 1008.1 hPa | - | - | 127 W/m² | - |
| 1777571979 | 11.11° C | 88% | 1008.2 hPa | - | - | 106 W/m² | - |
| 1777571679 | 11.11° C | 88% | 1008.2 hPa | - | - | 106 W/m² | - |
| 1777571378 | 11.11° C | 88% | 1007.9 hPa | - | - | 106 W/m² | - |
| 1777571073 | 11.11° C | 88% | 1008.1 hPa | - | - | 106 W/m² | - |
| 1777570769 | 11.11° C | 89% | 1007.9 hPa | - | - | 164 W/m² | - |
| 1777570466 | 11.11° C | 88% | 1008.1 hPa | - | - | 220 W/m² | - |
| 1777570162 | 11.11° C | 88% | 1007.8 hPa | - | - | 290 W/m² | - |
| 1777569858 | 11.11° C | 88% | 1007.9 hPa | - | - | 182 W/m² | - |
| 1777569554 | 11.11° C | 89% | 1008.2 hPa | - | - | 200 W/m² | - |
| 1777569251 | 11.11° C | 89% | 1007.9 hPa | - | - | 245 W/m² | - |
| 1777568947 | 11.11° C | 88% | 1007.9 hPa | - | - | 169 W/m² | - |
| 1777568643 | 11.11° C | 87% | 1007.9 hPa | - | - | 222 W/m² | - |
| 1777568341 | 11.11° C | 89% | 1007.9 hPa | - | - | 342 W/m² | - |
| 1777568037 | 11.11° C | 90% | 1008.1 hPa | - | - | 266 W/m² | - |
| 1777567734 | 11.11° C | 92% | 1008.2 hPa | - | - | 283 W/m² | - |
| 1777567431 | 10.56° C | 92% | 1008.3 hPa | - | - | 275 W/m² | - |
| 1777567129 | 10.56° C | 94% | 1008.5 hPa | - | - | 313 W/m² | - |
| 1777566826 | 10.56° C | 95% | 1008.6 hPa | - | - | 277 W/m² | - |
| 1777566524 | 10° C | 96% | 1009 hPa | - | - | 268 W/m² | - |
| 1777566222 | 10° C | 96% | 1008.8 hPa | - | - | 167 W/m² | - |
| 1777565918 | 10° C | 97% | 1008.8 hPa | - | - | 173 W/m² | - |
* Rain since midnight (hover to see other rain measurements)
** Current wind speed in m/s (hover to see current wind gust speed)